Date String (YYYY-MM-DD hh:mm:ss) UTC,Instrument flags,absolute air pressure of the measurement (hPa),sample flow rate (lpm),inlet stack bypass flow (lpm),air temperature of the measurement (°C),ambient temperature measured by the external sensor (°C),aerosol sample conditioner tube jacket temperature (°C),OPC LED temperature (°C),internal box temperature (°C),relative humidity of the measurement (%),span deviation,mass concentration of particles derived from Lorenz-Mie calculation of OPC scattering (μg/m³),mass concentration of particles derived from Lorenz-Mie calculation of OPC scattering (μg/m³),mass concentration of particles derived from Lorenz-Mie calculation of OPC scattering (μg/m³)
DateTimeUTC,F1_M11,P_M11,Q1_M11,Q2_M11,T1_M11,T2_M11,T3_M11,T4_M11,T5_M11,U1_M11,ZSPAN_M11,X0_M11,X2_M11,X1_M11
2024-03-03 00:00:00,SystemResetWarning,0811.6,4.98,000.00,025.8,024.9,000.0,034.3,027.6,05.7,0000.0,0002.98,0000.69,0000.33
2024-03-03 00:01:00,SystemResetWarning,0811.6,5.00,000.00,025.8,024.9,000.0,034.3,027.5,05.7,0000.0,0003.01,0000.68,0000.33
2024-03-03 00:02:00,SystemResetWarning,0811.6,5.01,000.00,025.8,024.9,000.0,034.3,027.6,05.7,0000.0,0003.54,0000.72,0000.34
2024-03-03 00:03:00,SystemResetWarning,0811.6,5.01,000.00,025.8,024.9,000.0,034.3,027.5,05.7,0000.0,0003.35,0000.76,0000.35
2024-03-03 00:04:00,SystemResetWarning,0811.6,5.00,000.00,025.8,024.9,000.0,034.3,027.5,05.8,0000.0,0003.22,0000.74,0000.36
2024-03-03 00:05:00,SystemResetWarning,0811.6,4.99,000.00,025.8,024.9,000.0,034.3,027.5,05.8,0000.0,0003.25,0000.74,0000.35
2024-03-03 00:06:00,SystemResetWarning,0811.6,4.98,000.00,025.7,024.9,000.0,034.3,027.5,05.8,0000.0,0002.60,0000.78,0000.36
2024-03-03 00:07:00,SystemResetWarning,0811.4,5.01,000.00,025.7,024.9,000.0,034.3,027.5,05.8,0000.0,0002.60,0000.80,0000.36
2024-03-03 00:08:00,SystemResetWarning,0811.5,5.00,000.00,025.7,024.9,000.0,034.3,027.5,05.6,0000.0,0002.73,0000.80,0000.38
2024-03-03 00:09:00,SystemResetWarning,0811.5,5.01,000.00,025.7,024.9,000.0,034.3,027.5,05.7,0000.0,0004.04,0000.80,0000.38
2024-03-03 00:10:00,SystemResetWarning,0811.4,5.00,000.00,025.7,024.9,000.0,034.3,027.5,05.8,0000.0,0005.67,0000.87,0000.39
2024-03-03 00:11:00,SystemResetWarning,0811.4,4.99,000.00,025.7,024.9,000.0,034.3,027.5,05.8,0000.0,0006.08,0000.99,0000.39
2024-03-03 00:12:00,SystemResetWarning,0811.5,4.99,000.00,025.7,024.9,000.0,034.2,027.5,05.7,0000.0,0006.46,0001.01,0000.40
2024-03-03 00:13:00,SystemResetWarning,0811.3,5.00,000.00,025.7,024.8,000.0,034.2,027.5,05.6,0000.0,0006.88,0001.01,0000.39
2024-03-03 00:14:00,SystemResetWarning,0811.3,5.01,000.00,025.7,024.8,000.0,034.2,027.4,05.6,0000.0,0006.82,0000.96,0000.38
2024-03-03 00:15:00,SystemResetWarning,0811.4,5.00,000.00,025.7,024.8,000.0,034.2,027.5,05.7,0000.0,0006.93,0001.00,0000.38
2024-03-03 00:16:00,SystemResetWarning,0811.3,5.00,000.00,025.7,024.8,000.0,034.2,027.4,05.7,0000.0,0006.96,0001.04,0000.39
2024-03-03 00:17:00,SystemResetWarning,0811.3,5.00,000.00,025.7,024.8,000.0,034.2,027.5,05.8,0000.0,0006.92,0001.02,0000.38
2024-03-03 00:18:00,SystemResetWarning,0811.3,5.01,000.00,025.7,024.8,000.0,034.2,027.4,05.8,0000.0,0006.79,0001.02,0000.38
2024-03-03 00:19:00,SystemResetWarning,0811.4,5.00,000.00,025.7,024.8,000.0,034.2,027.4,05.7,0000.0,0006.66,0001.00,0000.38
2024-03-03 00:20:00,SystemResetWarning,0811.4,5.00,000.00,025.7,024.8,000.0,034.2,027.5,05.8,0000.0,0005.57,0000.97,0000.37
2024-03-03 00:21:00,SystemResetWarning,0811.3,5.01,000.00,025.7,024.8,000.0,034.2,027.5,05.8,0000.0,0004.60,0000.95,0000.37
2024-03-03 00:22:00,SystemResetWarning,0811.3,5.01,000.00,025.7,024.8,000.0,034.2,027.4,05.7,0000.0,0004.09,0000.87,0000.36
2024-03-03 00:23:00,SystemResetWarning,0811.3,5.00,000.00,025.7,024.8,000.0,034.2,027.4,05.7,0000.0,0005.02,0000.90,0000.36
2024-03-03 00:24:00,SystemResetWarning,0811.3,5.00,000.00,025.7,024.8,000.0,034.2,027.4,05.8,0000.0,0003.73,0000.86,0000.36
2024-03-03 00:25:00,SystemResetWarning,0811.4,4.99,000.00,025.7,024.8,000.0,034.2,027.4,05.7,0000.0,0003.76,0000.87,0000.36
2024-03-03 00:26:00,SystemResetWarning,0811.5,4.99,000.00,025.7,024.7,000.0,034.2,027.4,05.8,0000.0,0005.24,0000.87,0000.36
2024-03-03 00:27:00,SystemResetWarning,0811.5,5.00,000.00,025.6,024.7,000.0,034.2,027.4,05.7,0000.0,0005.63,0000.85,0000.36
2024-03-03 00:28:00,SystemResetWarning,0811.5,4.99,000.00,025.6,024.7,000.0,034.2,027.4,05.7,0000.0,0005.67,0000.87,0000.36
2024-03-03 00:29:00,SystemResetWarning,0811.5,5.02,000.00,025.6,024.7,000.0,034.2,027.4,05.7,0000.0,0005.76,0000.86,0000.36
2024-03-03 00:30:00,SystemResetWarning,0811.4,5.01,000.00,025.6,024.7,000.0,034.2,027.4,05.9,0000.0,0005.83,0000.85,0000.35
2024-03-03 00:31:00,SystemResetWarning,0811.3,4.99,000.00,025.6,024.7,000.0,034.2,027.4,05.9,0000.0,0005.87,0000.86,0000.36
2024-03-03 00:32:00,SystemResetWarning,0811.3,5.00,000.00,025.6,024.7,000.0,034.2,027.4,05.9,0000.0,0005.11,0000.87,0000.36
2024-03-03 00:33:00,SystemResetWarning,0811.2,5.01,000.00,025.6,024.7,000.0,034.2,027.4,05.9,0000.0,0005.06,0000.83,0000.36
2024-03-03 00:34:00,SystemResetWarning,0811.2,5.01,000.00,025.6,024.7,000.0,034.2,027.4,05.8,0000.0,0004.37,0000.88,0000.36
2024-03-03 00:35:00,SystemResetWarning,0811.2,4.99,000.00,025.6,024.7,000.0,034.2,027.5,05.7,0000.0,0004.36,0000.96,0000.37
2024-03-03 00:36:00,SystemResetWarning,0811.3,4.99,000.00,025.6,024.7,000.0,034.2,027.4,05.8,0000.0,0004.51,0001.00,0000.37
2024-03-03 00:37:00,SystemResetWarning,0811.3,5.01,000.00,025.6,024.7,000.0,034.2,027.4,05.7,0000.0,0003.42,0000.99,0000.37
2024-03-03 00:38:00,SystemResetWarning,0811.3,5.01,000.00,025.6,024.7,000.0,034.2,027.4,05.8,0000.0,0002.63,0001.02,0000.38
2024-03-03 00:39:00,SystemResetWarning,0811.3,5.00,000.00,025.6,024.7,000.0,034.2,027.4,05.8,0000.0,0002.85,0001.01,0000.38
2024-03-03 00:40:00,SystemResetWarning,0811.3,4.99,000.00,025.6,024.7,000.0,034.2,027.4,05.7,0000.0,0003.29,0001.01,0000.38
2024-03-03 00:41:00,SystemResetWarning,0811.3,4.99,000.00,025.6,024.7,000.0,034.2,027.4,05.6,0000.0,0003.25,0001.04,0000.38
2024-03-03 00:42:00,SystemResetWarning,0811.3,5.00,000.00,025.6,024.7,000.0,034.2,027.4,05.6,0000.0,0003.24,0001.04,0000.38
2024-03-03 00:43:00,SystemResetWarning,0811.3,5.00,000.00,025.6,024.7,000.0,034.2,027.4,05.7,0000.0,0003.14,0000.99,0000.37
2024-03-03 00:44:00,SystemResetWarning,0811.3,5.01,000.00,025.6,024.7,000.0,034.2,027.4,05.7,0000.0,0003.21,0001.00,0000.37
2024-03-03 00:45:00,SystemResetWarning,0811.3,5.00,000.00,025.6,024.7,000.0,034.1,027.4,05.7,0000.0,0002.97,0000.91,0000.37
2024-03-03 00:46:00,SystemResetWarning,0811.2,4.99,000.00,025.6,024.7,000.0,034.1,027.4,05.7,0000.0,0002.59,0000.83,0000.37
2024-03-03 00:47:00,SystemResetWarning,0811.3,5.00,000.00,025.6,024.7,000.0,034.1,027.4,05.7,0000.0,0002.60,0000.83,0000.37
2024-03-03 00:48:00,SystemResetWarning,0811.2,5.01,000.00,025.6,024.7,000.0,034.1,027.4,05.8,0000.0,0002.59,0000.83,0000.37
2024-03-03 00:49:00,SystemResetWarning,0811.1,5.01,000.00,025.6,024.7,000.0,034.1,027.3,05.9,0000.0,0002.51,0000.78,0000.36
2024-03-03 00:50:00,SystemResetWarning,0811.1,4.99,000.00,025.6,024.7,000.0,034.1,027.3,05.9,0000.0,0002.38,0000.76,0000.35
2024-03-03 00:51:00,SystemResetWarning,0811.0,5.00,000.00,025.6,024.7,000.0,034.1,027.3,05.8,0000.0,0003.04,0000.77,0000.35
2024-03-03 00:52:00,SystemResetWarning,0810.9,5.00,000.00,025.6,024.7,000.0,034.1,027.3,05.9,0000.0,0003.90,0000.80,0000.36
2024-03-03 00:53:00,SystemResetWarning,0810.9,4.99,000.00,025.6,024.7,000.0,034.1,027.3,05.9,0000.0,0004.85,0000.82,0000.37
2024-03-03 00:54:00,SystemResetWarning,0811.0,5.00,000.00,025.5,024.7,000.0,034.1,027.3,05.8,0000.0,0004.93,0000.86,0000.37
2024-03-03 00:55:00,SystemResetWarning,0811.1,5.00,000.00,025.5,024.7,000.0,034.1,027.3,05.9,0000.0,0005.03,0000.92,0000.38
2024-03-03 00:56:00,SystemResetWarning,0811.0,5.00,000.00,025.5,024.7,000.0,034.1,027.3,06.0,0000.0,0005.62,0000.93,0000.38
2024-03-03 00:57:00,SystemResetWarning,0811.1,5.01,000.00,025.5,024.7,000.0,034.1,027.3,06.0,0000.0,0006.75,0000.95,0000.38
2024-03-03 00:58:00,SystemResetWarning,0811.1,5.01,000.00,025.5,024.7,000.0,034.1,027.3,06.0,0000.0,0006.80,0000.93,0000.38
2024-03-03 00:59:00,SystemResetWarning,0811.1,5.00,000.00,025.5,024.7,000.0,034.1,027.3,06.1,0000.0,0007.26,0000.91,0000.39
